This is the latest recevied weather packets stored in our database for station/object WA4ORT. If no packets are shown the sender has not sent any weather packets the latest 10 day(s).
| Time | Temp. | Humidity | Pressure | Rain* | Wind** | Luminosity | Snow |
|---|---|---|---|---|---|---|---|
| 1788032649 | 29.44° C | - | - | 0 mm | 1.34 m/s, 65° | - | - |
| 1788031751 | 29.44° C | - | - | 0 mm | 0.89 m/s, 91° | - | - |
| 1788030856 | 28.89° C | - | - | 0 mm | 0.89 m/s, 288° | - | - |
| 1788029963 | 28.89° C | - | - | 0 mm | 1.79 m/s, 121° | - | - |
| 1788029064 | 28.89° C | - | - | 0 mm | 1.79 m/s, 103° | - | - |
| 1788028170 | 28.89° C | - | - | 0 mm | 0.89 m/s, 145° | - | - |
| 1788027276 | 28.89° C | - | - | 0 mm | 0 m/s | - | - |
| 1788026378 | 28.33° C | - | - | 0 mm | 0.89 m/s, 122° | - | - |
| 1788025523 | 27.78° C | - | - | 0 mm | 0.45 m/s, 86° | - | - |
| 1788025483 | 27.78° C | - | - | 0 mm | 0.45 m/s, 86° | - | - |
| 1788024589 | 27.22° C | - | - | 0 mm | 0.89 m/s, 66° | - | - |
| 1788021903 | 27.22° C | - | - | 0 mm | 0.45 m/s, 79° | - | - |
| 1788021005 | 27.22° C | - | - | 0 mm | 0.45 m/s, 111° | - | - |
| 1788020111 | 27.22° C | - | - | 0 mm | 1.34 m/s, 62° | - | - |
| 1788019216 | 26.67° C | - | - | 0 mm | 0.45 m/s, 13° | - | - |
| 1788018318 | 26.67° C | - | - | 0 mm | 1.34 m/s, 7° | - | - |
| 1788017424 | 26.11° C | - | - | 0 mm | 0 m/s | - | - |
| 1788016530 | 26.67° C | - | - | 0 mm | 0 m/s | - | - |
| 1788015632 | 26.67° C | - | - | 0 mm | 0 m/s | - | - |
| 1788014773 | 25° C | - | - | 0 mm | 1.34 m/s, 65° | - | - |
| 1788014736 | 25° C | - | - | 0 mm | 1.34 m/s, 65° | - | - |
| 1788012944 | 23.89° C | - | - | 0 mm | 0.89 m/s, 191° | - | - |
| 1788012083 | 23.33° C | - | - | 0 mm | 0 m/s | - | - |
| 1788012051 | 23.33° C | - | - | 0 mm | 0 m/s | - | - |
| 1788011156 | 22.78° C | - | - | 0 mm | 0 m/s | - | - |
* Rain latest hour (hover to see other rain measurements)
** Current wind speed in m/s (hover to see current wind gust speed)